timestamp,surface_pressure_avg,surface_temp_avg,battery_voltage,lat,long
2020-04-12 00:09:01+00:00,289.6031,2.2,12.89,47.84626,-54.09684
2020-04-12 00:19:01+00:00,307.1263,2.18,12.73,47.84626,-54.09684
2020-04-12 00:29:01+00:00,320.1763,2.17,12.73,47.84626,-54.09684
2020-04-12 00:39:01+00:00,321.8063,2.1,12.73,47.84626,-54.09684
2020-04-12 00:49:01+00:00,333.9998,1.9,12.73,47.84626,-54.09684
2020-04-12 00:59:01+00:00,345.4163,2.04,12.73,47.84626,-54.09684
2020-04-12 01:09:01+00:00,351.82300000000015,2.1,12.73,47.84626,-54.09684
2020-04-12 01:19:01+00:00,362.5963,2.12,12.65,47.84626,-54.09684
2020-04-12 01:29:01+00:00,373.8829,2.12,12.65,47.84626,-54.09684
2020-04-12 01:39:01+00:00,379.1029,2.11,12.65,47.84626,-54.09684
2020-04-12 01:49:01+00:00,378.0162,2.14,12.65,47.84626,-54.09684
2020-04-12 01:59:01+00:00,376.8696,2.17,12.65,47.84626,-54.09684
2020-04-12 02:09:01+00:00,384.9346,2.1,12.65,47.84626,-54.09684
2020-04-12 02:19:01+00:00,387.0013,2.1,12.65,47.84626,-54.09684
2020-04-12 02:29:01+00:00,383.9579,2.14,12.65,47.84626,-54.09684
2020-04-12 02:39:01+00:00,385.7662,2.0,12.65,47.84626,-54.09684
2020-04-12 02:49:01+00:00,388.5329,1.8,12.65,47.84626,-54.09684
2020-04-12 02:59:01+00:00,383.20300000000003,1.8,12.65,47.84626,-54.09684
2020-04-12 03:09:01+00:00,375.1063,1.8,12.65,47.84626,-54.09684
2020-04-12 03:19:01+00:00,379.463,1.8,12.65,47.84626,-54.09684
2020-04-12 03:29:01+00:00,388.483,1.8,12.65,47.84626,-54.09684
2020-04-12 03:39:01+00:00,380.318,1.8,12.65,47.84626,-54.09684
2020-04-12 03:49:01+00:00,367.1262,1.89,12.65,47.84626,-54.09684
2020-04-12 03:59:01+00:00,367.8613,1.9,12.65,47.84626,-54.09684
2020-04-12 04:09:01+00:00,374.5846,1.9,12.65,47.84626,-54.09684
2020-04-12 04:19:01+00:00,364.3196,1.94,12.65,47.84626,-54.09684
2020-04-12 04:29:01+00:00,343.8863,2.0,12.65,47.84626,-54.09684
2020-04-12 04:39:01+00:00,344.4763,2.0,12.65,47.84626,-54.09684
2020-04-12 04:49:01+00:00,348.2446,2.0,12.65,47.84626,-54.09684
2020-04-12 04:59:01+00:00,325.5997,2.08,12.65,47.84626,-54.09684
2020-04-12 05:09:01+00:00,307.0013,2.0,12.65,47.84626,-54.09684
2020-04-12 05:19:01+00:00,311.9346,2.0,12.65,47.84626,-54.09684
2020-04-12 05:29:01+00:00,308.0264,2.05,12.65,47.84626,-54.09684
2020-04-12 05:39:01+00:00,284.4514,2.08,12.65,47.84626,-54.09684
2020-04-12 05:49:01+00:00,273.3447,2.08,12.65,47.84626,-54.09684
2020-04-12 05:59:01+00:00,277.7013,2.06,12.65,47.84626,-54.09684
2020-04-12 06:09:01+00:00,264.7781,2.06,12.65,47.84626,-54.09684
2020-04-12 06:19:01+00:00,241.6264,2.15,12.65,47.84626,-54.09684
2020-04-12 06:29:01+00:00,234.4731,2.2,12.65,47.84626,-54.09684
2020-04-12 06:39:01+00:00,240.3464,2.2,12.65,47.84626,-54.09684
2020-04-12 06:49:01+00:00,231.9014,2.2,12.65,47.84626,-54.09684
2020-04-12 06:59:01+00:00,215.1114,2.3,12.65,47.84626,-54.09684
2020-04-12 07:09:01+00:00,208.7631,2.39,12.65,47.84626,-54.09684
2020-04-12 07:19:01+00:00,211.3232,2.31,12.57,47.84626,-54.09684
2020-04-12 07:29:01+00:00,205.0797,2.35,12.57,47.84626,-54.09684
2020-04-12 07:39:01+00:00,196.2231,2.4,12.57,47.84626,-54.09684
2020-04-12 07:49:01+00:00,193.8465,2.39,12.57,47.84626,-54.09684
2020-04-12 07:59:01+00:00,194.7631,2.3,12.57,47.84626,-54.09684
2020-04-12 08:09:01+00:00,186.9698,2.3,12.57,47.84626,-54.09684
2020-04-12 08:19:01+00:00,179.6781,2.38,12.57,47.84626,-54.09684
2020-04-12 08:29:01+00:00,189.3848,2.34,12.57,47.84626,-54.09684
2020-04-12 08:39:01+00:00,197.4448,2.35,12.57,47.84626,-54.09684
2020-04-12 08:49:01+00:00,188.4198,2.4,12.57,47.84626,-54.09684
2020-04-12 08:59:01+00:00,187.3815,2.4,12.57,47.84626,-54.09684
2020-04-12 09:09:01+00:00,201.0581,2.21,12.57,47.84626,-54.09684
2020-04-12 09:19:01+00:00,204.8165,2.25,12.57,47.84626,-54.09684
2020-04-12 09:29:01+00:00,201.1681,2.3,12.57,47.84626,-54.09684
2020-04-12 09:39:01+00:00,203.3964,2.29,12.57,47.84626,-54.09684
2020-04-12 09:49:01+00:00,211.2715,2.2,12.57,47.84626,-54.09684
2020-04-12 09:59:01+00:00,213.2581,2.3,12.57,47.84626,-54.09684
2020-04-12 10:09:01+00:00,215.1381,2.3,12.57,47.84626,-54.09684
2020-04-12 10:19:01+00:00,221.4481,2.1,13.6,47.84626,-54.09684
2020-04-12 10:29:01+00:00,222.6015,2.09,13.6,47.84626,-54.09684
2020-04-12 10:39:01+00:00,220.2264,2.4,13.6,47.84626,-54.09684
2020-04-12 10:49:01+00:00,223.5614,2.1,13.6,47.84626,-54.09684
2020-04-12 10:59:01+00:00,226.1781,2.0,13.6,47.84626,-54.09684
2020-04-12 11:09:01+00:00,221.7248,2.21,13.6,47.84626,-54.09684
2020-04-12 11:19:01+00:00,225.0031,2.37,14.56,47.84626,-54.09684
2020-04-12 11:29:01+00:00,232.5747,2.09,14.56,47.84626,-54.09684
2020-04-12 11:39:01+00:00,231.6864,2.07,14.56,47.84626,-54.09684
2020-04-12 11:49:01+00:00,233.0381,2.2,14.56,47.84626,-54.09684
2020-04-12 11:59:01+00:00,246.9964,2.08,14.56,47.84626,-54.09684
2020-04-12 12:09:01+00:00,254.5697,1.98,14.56,47.84626,-54.09684
2020-04-12 12:19:01+00:00,252.1431,2.06,14.72,47.84626,-54.09684
2020-04-12 12:29:01+00:00,259.9031,2.1,14.72,47.84626,-54.09684
2020-04-12 12:39:01+00:00,278.1147,2.0,14.72,47.84626,-54.09684
2020-04-12 12:49:01+00:00,284.5681,2.0,14.72,47.84626,-54.09684
2020-04-12 12:59:01+00:00,281.0464,2.1,14.72,47.84626,-54.09684
2020-04-12 13:09:01+00:00,295.0346,1.96,14.72,47.84626,-54.09684
2020-04-12 13:19:01+00:00,306.7414,1.96,14.64,47.84626,-54.09684
2020-04-12 13:29:01+00:00,306.588,1.98,14.64,47.84626,-54.09684
2020-04-12 13:39:01+00:00,313.8513,2.0,14.64,47.84626,-54.09684
2020-04-12 13:49:01+00:00,329.033,2.08,14.64,47.84626,-54.09684
2020-04-12 13:59:01+00:00,329.8813,2.1,14.64,47.84626,-54.09684
2020-04-12 14:09:01+00:00,324.5947,1.94,14.64,47.84626,-54.09684
2020-04-12 14:19:01+00:00,330.4947,2.0,14.64,47.84626,-54.09684
2020-04-12 14:29:01+00:00,337.5863,1.88,14.64,47.84626,-54.09684
2020-04-12 14:39:01+00:00,332.0146,1.9,14.64,47.84626,-54.09684
2020-04-12 14:49:01+00:00,330.8296,1.8,14.64,47.84626,-54.09684
2020-04-12 14:59:01+00:00,339.30300000000005,1.91,14.64,47.84626,-54.09684
2020-04-12 15:09:01+00:00,342.153,2.06,14.64,47.84626,-54.09684
2020-04-12 15:19:01+00:00,333.858,1.9,14.56,47.84626,-54.09684
2020-04-12 15:29:01+00:00,335.0329,1.8,14.56,47.84626,-54.09684
2020-04-12 15:39:01+00:00,339.3730000000001,2.0,14.56,47.84626,-54.09684
2020-04-12 15:49:01+00:00,338.1263,2.1,14.56,47.84626,-54.09684
2020-04-12 15:59:01+00:00,332.598,2.1,14.56,47.84626,-54.09684
2020-04-12 16:09:01+00:00,330.8263,2.06,14.56,47.84626,-54.09684
2020-04-12 16:19:01+00:00,331.0379,2.12,14.48,47.84626,-54.09684
2020-04-12 16:29:01+00:00,327.2062,2.2,14.48,47.84626,-54.09684
2020-04-12 16:39:01+00:00,320.9679,2.2,14.48,47.84626,-54.09684
2020-04-12 16:49:01+00:00,317.14799999999997,2.21,14.48,47.84626,-54.09684
2020-04-12 16:59:01+00:00,319.5179,2.2,14.48,47.84626,-54.09684
2020-04-12 17:09:01+00:00,318.493,2.24,14.48,47.84626,-54.09684
2020-04-12 17:19:01+00:00,307.103,2.3,14.32,47.84626,-54.09684
2020-04-12 17:29:01+00:00,294.938,2.3,14.32,47.84626,-54.09684
2020-04-12 17:39:01+00:00,293.433,2.29,14.32,47.84626,-54.09684
2020-04-12 17:49:01+00:00,285.2597,2.29,14.32,47.84626,-54.09684
2020-04-12 17:59:01+00:00,269.2597,2.31,14.32,47.84626,-54.09684
2020-04-12 18:09:01+00:00,258.5315,2.4,14.32,47.84626,-54.09684
2020-04-12 18:19:01+00:00,255.7997,2.4,14.16,47.84626,-54.09684
2020-04-12 18:29:01+00:00,247.2881,2.4,14.16,47.84626,-54.09684
2020-04-12 18:39:01+00:00,233.9131,2.46,14.16,47.84626,-54.09684
2020-04-12 18:49:01+00:00,225.1964,2.5,14.16,47.84626,-54.09684
2020-04-12 18:59:01+00:00,217.5814,2.5,14.16,47.84626,-54.09684
2020-04-12 19:09:01+00:00,208.4898,2.59,14.16,47.84626,-54.09684
2020-04-12 19:19:01+00:00,199.0131,2.6,13.92,47.84626,-54.09684
2020-04-12 19:29:01+00:00,193.6148,2.7,13.92,47.84626,-54.09684
2020-04-12 19:39:01+00:00,190.0348,2.73,13.92,47.84626,-54.09684
2020-04-12 19:49:01+00:00,183.7365,2.85,13.92,47.84626,-54.09684
2020-04-12 19:59:01+00:00,177.3165,3.42,13.92,47.84626,-54.09684
2020-04-12 20:09:01+00:00,179.6881,3.48,13.92,47.84626,-54.09684
2020-04-12 20:19:01+00:00,181.1365,3.44,13.84,47.84626,-54.09684
2020-04-12 20:29:01+00:00,174.2881,3.51,13.84,47.84626,-54.09684
2020-04-12 20:39:01+00:00,173.3082,3.6,13.84,47.84626,-54.09684
2020-04-12 20:49:01+00:00,176.5648,3.5,13.84,47.84626,-54.09684
2020-04-12 20:59:01+00:00,176.3515,3.5,13.84,47.84626,-54.09684
2020-04-12 21:09:01+00:00,179.4498,3.57,13.84,47.84626,-54.09684
2020-04-12 21:19:01+00:00,187.9081,3.5,13.68,47.84626,-54.09684
2020-04-12 21:29:01+00:00,188.7898,3.5,13.68,47.84626,-54.09684
2020-04-12 21:39:01+00:00,187.5665,3.59,13.68,47.84626,-54.09684
2020-04-12 21:49:01+00:00,197.8065,3.5,13.68,47.84626,-54.09684
2020-04-12 21:59:01+00:00,208.5231,3.4,13.68,47.84626,-54.09684
2020-04-12 22:09:01+00:00,210.6365,3.4,13.68,47.84626,-54.09684
2020-04-12 22:19:01+00:00,213.7948,3.47,13.37,47.84626,-54.09684
2020-04-12 22:29:01+00:00,221.0098,3.4,13.37,47.84626,-54.09684
2020-04-12 22:39:01+00:00,222.4298,3.47,13.37,47.84626,-54.09684
2020-04-12 22:49:01+00:00,223.5614,3.5,13.37,47.84626,-54.09684
2020-04-12 22:59:01+00:00,229.0814,3.5,13.37,47.84626,-54.09684
2020-04-12 23:09:01+00:00,232.4248,3.5,13.37,47.84626,-54.09684
2020-04-12 23:19:01+00:00,232.2914,3.5,13.05,47.84626,-54.09684
2020-04-12 23:29:01+00:00,236.1281,3.5,13.05,47.84626,-54.09684
2020-04-12 23:39:01+00:00,242.9931,3.5,13.05,47.84626,-54.09684
2020-04-12 23:49:01+00:00,245.8581,3.5,13.05,47.84626,-54.09684
2020-04-12 23:59:01+00:00,246.7214,3.4,13.05,47.84626,-54.09684
